SES-8

Last updated on Thu Jul 03 2025 00:02:46 GMT+0000 (Coordinated Universal Time)

1 39460U 13071A 25183.57266933 -.00000262 00000+0 00000+0 0 9993 2 39460 0.0488 267.1488 0002803 190.0411 124.8098 1.00271491 40921
UTC large
Height (km)
Speed (km/s)
/
Latitude / Longitude
Inclination (degrees)
Orbital Period (minutes)
Azimuth
Elevation
Range (km)
Doppler Factor

Next 0 passes for location: London (51.5072 / 0.1276)

Sorry there are no passes over London.